Dewpoint
-25 -26 -27 -28 -28 -30 -31 -32 -33 -33 -34 -34 -34 -32 -28 -21 -12 -2 3 6 9 9 10 10 10 10 11 11 11 11 11 9 9 11 8 7 10 11 11 11 10 8 7
-25 -26 -27 -28 -29 -30 -31 -32 -33 -33 -34 -34 -34 -34 -33 -32 -28 -19 -11 -5 1 8 9 10 10 10 10 10 11 11 11 11 11 9 9 10 7 8 11 11 11 10 8
-25 -26 -27 -29 -30 -31 -32 -33 -33 -34 -34 -34 -33 -33 -33 -33 -33 -32 -28 -21 -15 -1 6 8 9 10 10 10 10 10 10 11 11 11 11 8 10 11 8 10 11 11 11
-25 -26 -27 -28 -30 -32 -32 -33 -33 -32 -32 -31 -32 -31 -31 -32 -32 -32 -32 -31 -30 -25 -14 -2 6 8 9 9 10 10 10 10 10 10 11 11 10 9 11 11 9 10 11
-25 -26 -28 -29 -31 -31 -32 -32 -32 -30 -26 -25 -27 -28 -28 -26 -27 -27 -27 -28 -28 -28 -28 -29 -28 -20 -6 4 8 8 8 9 10 10 10 10 11 11 11 11 11 11 9
-26 -27 -28 -30 -31 -32 -32 -32 -31 -32 -29 -24 -20 -22 -24 -23 -21 -21 -23 -24 -25 -25 -26 -26 -27 -27 -28 -29 -25 -12 1 7 8 8 9 10 10 10 10 10 10 10 11
-26 -27 -28 -30 -31 -31 -31 -32 -31 -28 -30 -24 -14 -17 -22 -22 -20 -21 -21 -22 -24 -25 -25 -26 -27 -27 -27 -27 -27 -29 -30 -24 -2 5 7 8 9 10 10 10 10 10 10
-26 -27 -28 -29 -29 -29 -29 -29 -28 -25 -28 -27 -12 -12 -11 -12 -18 -20 -20 -21 -23 -24 -26 -27 -28 -28 -29 -29 -29 -29 -28 -26 -23 -13 -2 5 7 8 9 9 9 10 10
-26 -27 -28 -28 -28 -27 -27 -28 -28 -23 -16 -25 -25 -12 -13 -13 -12 -15 -17 -18 -20 -22 -24 -27 -28 -28 -29 -30 -30 -30 -31 -31 -28 -23 -19 -13 -4 3 6 8 8 9 10
-26 -27 -28 -28 -29 -28 -27 -27 -28 -28 -22 -17 -21 -25 -20 -15 -13 -13 -13 -17 -20 -20 -22 -24 -26 -27 -27 -28 -29 -29 -30 -30 -31 -31 -26 -19 -17 -15 -7 -0 4 7 8
-25 -27 -27 -28 -28 -28 -28 -28 -27 -27 -27 -23 -20 -19 -21 -22 -23 -16 -14 -13 -13 -14 -18 -22 -24 -25 -26 -26 -25 -28 -29 -29 -29 -30 -29 -23 -14 -8 -7 -8 -9 -6 0
-25 -26 -27 -27 -28 -28 -27 -27 -26 -26 -26 -26 -26 -25 -22 -14 -13 -13 -13 -14 -13 -14 -14 -18 -19 -19 -22 -23 -23 -25 -26 -27 -28 -29 -29 -20 -6 -7 -14 -18 -21 -20 -20
-25 -26 -26 -27 -27 -27 -27 -26 -26 -26 -26 -25 -24 -23 -24 -23 -21 -19 -17 -13 -12 -13 -14 -15 -17 -20 -19 -19 -18 -22 -22 -23 -25 -26 -28 -19 -6 -13 -26 -28 -27 -26 -27
-11 -11 -22 -26 -27 -27 -26 -26 -25 -24 -24 -24 -23 -23 -23 -22 -22 -20 -16 -13 -12 -12 -13 -13 -13 -15 -17 -17 -19 -20 -20 -21 -22 -23 -24 -25 -26 -26 -28 -29 -30 -30 -29
-21 -12 -10 -13 -18 -24 -25 -24 -24 -24 -23 -23 -22 -22 -22 -21 -21 -21 -19 -17 -11 -10 -12 -14 -13 -13 -17 -18 -19 -20 -20 -20 -20 -20 -21 -22 -23 -24 -25 -27 -29 -29 -30
-7 -10 -18 -25 -25 -24 -24 -23 -23 -23 -22 -22 -21 -21 -19 -17 -17 -18 -16 -15 -13 -11 -10 -13 -12 -11 -11 -13 -17 -19 -20 -21 -20 -19 -19 -20 -21 -21 -22 -24 -26 -28 -28
-17 -23 -24 -24 -24 -23 -22 -21 -21 -20 -21 -20 -20 -20 -19 -17 -14 -12 -11 -11 -11 -10 -10 -13 -12 -11 -12 -11 -11 -11 -16 -19 -21 -21 -20 -19 -19 -20 -21 -21 -22 -24 -25
-24 -24 -23 -22 -22 -22 -21 -21 -20 -20 -20 -19 -19 -18 -18 -16 -15 -14 -11 -11 -10 -10 -10 -10 -11 -10 -11 -12 -13 -12 -14 -14 -16 -19 -19 -21 -21 -20 -20 -20 -21 -21 -22
-22 -21 -22 -22 -22 -21 -20 -20 -20 -20 -19 -19 -18 -18 -17 -16 -15 -12 -11 -11 -10 -10 -10 -10 -11 -11 -12 -13 -12 -10 -10 -10 -10 -11 -11 -15 -19 -20 -20 -19 -20 -20 -22
-20 -19 -21 -21 -20 -20 -20 -19 -18 -18 -18 -17 -17 -17 -16 -15 -14 -12 -11 -11 -11 -10 -10 -10 -11 -12 -11 -12 -10 -10 -10 -10 -8 -8 -9 -9 -9 -11 -17 -18 -18 -19 -20
-20 -19 -19 -20 -20 -19 -19 -18 -17 -16 -16 -14 -12 -11 -11 -11 -11 -11 -11 -11 -11 -11 -11 -11 -10 -11 -12 -12 -12 -11 -9 -9 -10 -10 -9 -9 -9 -9 -10 -12 -16 -18 -19
-13 -12 -16 -20 -20 -20 -19 -19 -18 -16 -13 -11 -11 -11 -11 -11 -11 -11 -10 -11 -10 -10 -10 -10 -10 -9 -11 -12 -10 -9 -9 -10 -9 -10 -11 -10 -10 -8 -8 -8 -8 -9 -13
-11 -17 -20 -19 -19 -19 -19 -19 -19 -15 -14 -11 -11 -11 -11 -11 -11 -11 -11 -10 -10 -10 -9 -9 -9 -9 -9 -9 -9 -9 -8 -8 -9 -10 -11 -11 -11 -11 -11 -11 -10 -7 -7
-19 -20 -20 -19 -19 -19 -19 -20 -19 -15 -14 -13 -12 -12 -12 -12 -12 -11 -12 -11 -12 -12 -12 -12 -12 -12 -12 -12 -12 -12 -12 -12 -11 -11 -12 -9 -10 -9 -9 -10 -9 -8 -7
-19 -19 -19 -18 -19 -19 -19 -19 -19 -17 -14 -13 -13 -12 -12 -13 -12 -11 -11 -12 -13 -14 -14 -10 -10 -10 -10 -10 -10 -10 -9 -11 -10 -8 -9 -9 -9 -9 -10 -12 -13 -14 -13
-19 -19 -18 -18 -19 -19 -19 -19 -17 -13 -12 -12 -12 -13 -12 -11 -11 -11 -11 -11 -11 -12 -11 -11 -10 -11 -10 -10 -10 -10 -10 -9 -10 -10 -12 -10 -10 -10 -11 -12 -14 -11 -8
Wind_Speed
9 9 8 7 7 6 6 6 5 5 5 7 9 11 13 14 15 14 13 15 16 18 14 14 16 16 13 12 15 13 9 11 11 11 12 12 11 10 9 7 4 2 4
9 8 7 6 6 6 6 6 6 6 5 6 8 10 11 12 13 15 15 14 18 20 20 19 20 19 17 15 16 16 14 14 10 10 11 14 14 13 12 11 9 7 5
9 8 7 6 6 6 6 6 5 5 6 7 7 8 9 11 12 14 15 16 16 17 20 21 20 22 22 21 21 20 16 14 14 12 10 11 14 15 16 15 13 12 11
10 9 9 8 7 6 6 5 4 4 4 6 7 7 7 9 10 12 14 16 17 19 21 21 19 21 22 23 21 21 19 19 18 15 14 12 12 13 14 16 17 16 14
10 7 5 4 3 2 3 3 5 6 4 3 4 6 7 8 7 9 10 12 14 15 16 17 20 21 23 26 25 25 24 21 18 19 17 18 16 13 12 15 17 17 19
9 7 7 6 6 6 5 4 3 3 4 5 4 5 5 6 6 7 8 9 10 11 12 13 13 14 17 21 22 25 27 24 23 23 20 22 20 17 16 13 18 16 18
8 7 7 7 6 5 5 5 6 5 4 5 2 1 4 6 6 7 6 7 7 8 8 9 10 11 12 14 15 16 19 24 26 23 26 26 23 22 21 19 18 21 22
9 7 6 5 4 3 3 3 4 3 3 6 6 4 2 4 7 7 8 7 7 7 8 8 8 9 10 12 11 12 13 16 19 26 29 31 31 28 25 24 21 20 22
11 9 7 6 5 4 3 3 3 5 1 2 5 7 3 0 2 7 7 7 8 7 8 8 9 9 9 11 12 13 13 14 16 19 23 29 33 33 32 28 26 27 28
11 9 8 7 6 4 3 2 3 3 4 1 0 3 5 5 2 1 5 5 6 7 8 8 8 9 9 11 12 13 13 13 15 16 16 17 19 26 29 31 33 34 33
10 9 8 6 5 4 4 3 2 2 3 3 3 1 2 2 2 2 1 0 6 8 9 9 9 9 10 11 11 14 14 15 15 16 16 14 14 13 16 20 25 31 36
10 8 6 5 4 4 4 3 3 2 2 3 3 3 3 3 1 2 2 3 6 6 10 9 8 9 10 10 12 12 13 15 17 18 17 14 10 14 21 22 23 23 25
8 6 4 4 3 3 3 3 4 4 4 4 4 4 5 6 7 6 6 5 6 8 6 7 8 10 9 10 13 11 12 12 14 16 18 17 12 20 21 20 21 22 22
4 4 4 3 4 4 5 5 5 6 6 6 7 7 7 7 7 7 7 7 8 6 8 8 9 9 9 12 13 13 14 13 13 13 15 18 19 20 20 19 19 19 20
10 9 12 12 11 9 8 7 8 8 8 8 8 9 9 9 9 9 10 9 6 5 6 5 6 9 11 13 15 16 16 15 14 14 15 15 15 15 16 17 19 20 19
14 10 11 11 10 9 9 9 9 9 9 9 9 9 9 9 10 10 10 10 11 11 10 8 7 9 12 15 15 16 16 17 17 16 16 17 16 15 15 16 17 18 18
16 14 12 10 9 9 9 9 9 9 9 10 10 10 10 10 11 10 10 11 12 13 16 19 17 18 17 15 14 15 16 17 18 19 19 19 19 19 18 17 16 16 16
13 11 10 9 8 9 9 10 10 11 11 11 11 11 11 11 12 12 12 13 13 14 16 18 19 19 17 15 16 17 17 16 18 19 21 22 23 22 22 22 21 19 18
12 11 10 10 10 10 11 12 12 12 13 13 13 13 12 12 13 12 12 13 14 14 16 18 23 20 19 16 15 15 16 19 18 18 19 21 21 24 25 24 23 22 21
13 11 11 11 11 11 12 12 13 12 12 13 13 13 13 13 14 13 12 13 15 16 17 20 20 21 20 16 15 16 18 16 15 14 17 20 20 22 23 23 23 22 22
12 11 12 13 12 13 14 13 13 13 13 12 11 12 13 14 14 15 16 17 16 17 18 19 19 19 21 20 22 17 18 21 20 17 19 21 20 19 21 20 21 22 23
13 15 15 16 16 16 15 15 15 15 14 15 15 14 14 15 16 16 17 18 21 23 23 24 25 26 28 29 26 23 25 23 23 21 24 23 16 19 21 23 25 24 23
16 16 16 17 16 17 16 16 16 16 16 16 15 14 16 14 16 17 16 16 19 20 23 25 28 28 26 20 21 21 21 23 26 26 29 30 27 31 30 30 25 25 25
16 17 18 18 18 18 17 16 17 17 17 17 16 17 19 20 18 18 18 20 21 22 23 23 26 29 29 28 27 30 33 35 35 32 29 33 26 25 24 26 26 25 27
16 17 17 18 18 18 17 17 18 18 17 17 16 18 20 19 19 18 20 24 24 23 20 20 22 24 25 27 28 31 35 36 37 28 24 26 26 27 32 39 40 37 33
16 16 18 18 19 19 18 18 17 16 18 18 18 19 17 20 20 19 21 23 25 26 25 24 24 24 24 27 26 28 32 35 37 37 33 26 27 31 35 36 30 18 22
Wind_Direction
201 206 211 222 234 240 242 249 257 252 243 238 230 226 222 219 216 218 216 219 187 160 185 183 157 142 158 186 222 218 211 214 219 224 232 233 231 224 217 221 218 205 172
203 204 211 218 225 237 245 243 238 239 233 226 227 226 223 220 216 216 218 222 228 214 213 205 193 185 186 188 205 228 231 237 230 234 234 236 237 233 231 227 227 227 216
201 203 206 211 217 219 224 233 234 223 223 224 215 220 222 219 219 220 224 221 214 221 226 230 207 214 213 212 225 233 230 240 243 248 248 243 240 240 237 236 233 232 227
201 202 205 205 202 199 200 209 219 243 230 214 216 214 218 220 222 221 224 227 228 223 221 225 224 230 235 233 231 238 235 238 243 249 244 246 253 239 243 237 236 235 235
207 209 214 223 233 236 235 202 195 195 193 226 221 216 212 214 216 222 225 229 231 234 234 232 233 235 238 240 243 244 244 244 241 235 233 236 241 245 243 247 241 239 237
198 197 198 200 206 211 213 216 230 228 202 190 182 209 215 222 214 214 222 229 229 238 243 242 244 238 239 243 247 248 249 243 242 242 239 237 230 229 228 228 243 244 243
196 199 204 209 211 208 198 196 196 194 203 184 153 246 229 216 220 229 234 237 239 242 247 248 250 256 253 255 252 245 243 242 236 234 234 238 237 232 226 226 222 238 244
191 191 195 202 207 207 196 177 174 173 186 184 166 198 242 285 258 227 225 234 241 250 255 261 258 257 259 258 259 255 246 239 235 231 234 235 237 236 233 229 227 222 226
196 197 195 193 191 191 200 191 172 163 149 180 184 164 219 195 166 295 247 243 239 246 248 256 264 262 260 261 256 254 252 250 247 243 239 241 240 239 237 236 235 234 235
195 196 195 197 202 200 204 202 192 177 151 189 281 200 209 201 174 218 296 284 258 258 268 264 264 263 260 259 257 253 253 249 252 256 254 250 246 245 245 243 241 242 245
194 193 196 199 202 208 216 221 214 200 193 185 191 186 272 291 250 205 237 94 338 299 281 273 272 263 256 254 255 261 262 256 253 251 253 257 258 260 255 249 249 250 248
193 195 198 205 209 217 224 230 236 241 242 236 235 241 225 178 239 218 260 274 276 281 278 283 280 268 268 262 260 261 260 261 263 261 262 257 266 262 260 264 264 263 263
186 187 200 214 226 237 248 262 273 278 276 273 264 255 253 249 253 258 265 277 279 294 294 297 276 271 272 272 275 274 272 270 265 262 261 264 271 268 267 264 264 266 265
213 231 230 265 269 253 245 246 257 266 271 269 268 267 264 263 261 259 258 277 298 282 293 281 284 276 270 269 280 285 285 280 272 267 265 266 270 273 272 267 263 261 261
200 220 231 229 233 241 251 264 267 273 276 281 282 280 277 272 270 265 261 257 258 292 294 270 269 285 273 272 280 287 286 285 283 278 272 273 273 271 267 265 265 265 266
230 221 235 234 235 243 251 256 258 260 265 269 271 272 273 275 273 270 265 260 254 249 258 245 270 266 267 277 285 282 280 280 279 279 278 277 279 276 273 267 262 260 262
219 217 218 224 231 241 248 253 258 264 268 268 271 271 269 267 264 266 263 260 253 251 258 272 272 273 277 285 288 289 286 282 278 275 274 275 278 282 281 279 277 272 268
213 216 219 226 237 246 256 260 261 265 266 268 269 268 270 268 265 262 259 254 254 257 259 267 276 278 281 282 283 286 289 287 286 281 277 273 273 276 278 278 279 279 277
211 219 228 234 243 251 255 259 260 262 266 267 268 269 268 266 264 257 250 251 258 260 259 262 270 277 283 286 287 288 295 291 289 288 289 284 273 270 271 273 276 276 278
223 231 241 250 250 252 258 260 264 265 266 267 267 267 266 264 264 261 259 255 258 258 261 266 273 284 288 289 281 284 285 296 295 283 281 285 287 283 274 270 271 271 271
234 245 254 260 260 259 260 263 264 262 259 256 258 267 274 275 267 264 263 259 258 259 262 268 272 278 291 291 291 295 275 280 278 280 287 284 292 289 291 285 273 265 266
252 261 262 259 258 259 261 265 265 264 267 266 271 268 267 269 271 268 266 266 271 276 275 274 273 269 284 283 286 278 279 281 278 281 284 286 282 272 270 274 280 284 275
253 258 258 259 260 259 263 262 263 263 263 266 269 274 275 271 274 281 277 268 265 264 265 273 276 274 274 276 277 275 271 271 276 280 285 283 282 278 284 284 280 274 276
256 260 263 262 263 263 265 268 266 266 268 271 270 268 271 274 273 274 278 275 271 268 267 266 269 274 276 279 279 279 280 282 280 279 285 282 288 283 285 282 275 268 268
254 256 258 262 265 268 270 271 270 270 269 268 267 265 265 268 268 269 269 273 278 279 279 275 274 275 275 275 271 273 271 273 274 274 280 281 282 282 280 279 282 280 280
267 268 270 273 274 272 272 271 268 267 264 264 266 266 264 265 271 269 268 272 276 281 288 288 283 278 270 267 269 266 268 272 277 280 281 278 279 283 286 281 291 276 259
Height
1517 1519 1520 1522 1523 1524 1525 1527 1528 1529 1531 1532 1534 1536 1538 1539 1542 1541 1544 1543 1546 1546 1547 1551 1554 1554 1556 1557 1557 1560 1562 1563 1566 1567 1568 1570 1572 1573 1574 1575 1576 1577 1578
1517 1519 1520 1521 1522 1523 1525 1526 1527 1528 1529 1531 1533 1534 1536 1538 1537 1539 1541 1542 1544 1546 1545 1549 1550 1552 1554 1554 1555 1558 1561 1562 1564 1566 1567 1569 1570 1572 1573 1574 1575 1577 1578
1515 1517 1519 1519 1521 1522 1523 1525 1526 1528 1529 1530 1531 1532 1533 1534 1535 1536 1537 1539 1542 1544 1546 1548 1549 1549 1551 1551 1554 1557 1560 1561 1563 1564 1565 1567 1568 1570 1571 1573 1574 1575 1577
1513 1515 1517 1518 1520 1521 1522 1523 1525 1526 1527 1529 1530 1530 1531 1532 1532 1533 1535 1537 1538 1540 1543 1544 1547 1548 1549 1550 1552 1554 1556 1558 1561 1563 1564 1564 1566 1567 1569 1571 1572 1573 1575
1512 1514 1515 1516 1517 1519 1520 1522 1524 1525 1526 1527 1528 1529 1529 1530 1530 1531 1532 1534 1536 1537 1540 1541 1543 1543 1544 1546 1549 1551 1553 1556 1559 1560 1559 1563 1564 1566 1566 1568 1569 1570 1572
1512 1513 1514 1516 1517 1518 1519 1521 1522 1523 1525 1526 1527 1527 1527 1528 1529 1530 1531 1532 1534 1535 1537 1538 1538 1540 1542 1544 1544 1546 1549 1551 1556 1556 1554 1560 1561 1562 1563 1564 1566 1567 1569
1510 1512 1513 1515 1516 1517 1519 1520 1521 1522 1524 1524 1526 1527 1527 1528 1529 1530 1531 1531 1533 1534 1534 1535 1535 1536 1539 1540 1541 1544 1543 1546 1549 1550 1552 1553 1558 1557 1559 1560 1560 1562 1564
1509 1511 1513 1514 1515 1517 1517 1519 1520 1521 1523 1524 1526 1528 1529 1530 1528 1529 1530 1531 1531 1532 1533 1534 1534 1535 1536 1538 1538 1539 1541 1543 1543 1544 1544 1549 1552 1553 1554 1556 1556 1557 1559
1509 1511 1513 1514 1516 1517 1518 1519 1520 1521 1522 1523 1524 1526 1529 1528 1529 1529 1528 1529 1531 1532 1532 1532 1533 1534 1535 1536 1536 1537 1538 1538 1538 1540 1542 1542 1547 1548 1550 1551 1552 1552 1554
1508 1510 1512 1514 1515 1516 1518 1519 1520 1521 1521 1522 1523 1524 1525 1527 1528 1530 1529 1529 1530 1531 1530 1531 1532 1533 1534 1534 1534 1534 1535 1535 1536 1537 1538 1539 1541 1542 1543 1544 1546 1547 1548
1506 1509 1511 1513 1515 1516 1517 1518 1519 1520 1521 1521 1522 1523 1524 1525 1526 1528 1530 1530 1531 1530 1529 1530 1531 1531 1532 1532 1531 1532 1532 1533 1534 1534 1535 1536 1537 1537 1537 1538 1538 1539 1541
1505 1508 1510 1512 1513 1515 1516 1517 1519 1520 1520 1521 1521 1522 1523 1525 1526 1527 1529 1529 1530 1530 1528 1528 1528 1528 1528 1529 1529 1530 1530 1530 1530 1530 1531 1531 1531 1531 1531 1531 1532 1534 1535
1504 1507 1510 1511 1513 1514 1515 1516 1518 1519 1520 1520 1520 1521 1521 1522 1524 1525 1525 1526 1527 1527 1527 1526 1525 1525 1525 1525 1525 1527 1527 1527 1528 1528 1526 1526 1526 1526 1527 1527 1527 1527 1529
1504 1507 1509 1511 1511 1512 1513 1514 1516 1518 1519 1519 1519 1519 1519 1520 1521 1523 1524 1524 1524 1525 1525 1525 1524 1523 1523 1522 1523 1524 1523 1524 1524 1523 1523 1522 1523 1524 1524 1523 1522 1522 1523
1503 1506 1507 1509 1510 1511 1512 1513 1514 1516 1517 1517 1518 1518 1518 1518 1519 1519 1520 1522 1523 1524 1524 1525 1523 1522 1521 1521 1520 1520 1520 1520 1520 1520 1520 1520 1520 1521 1520 1519 1518 1519 1518
1502 1504 1505 1507 1508 1510 1511 1511 1513 1514 1515 1515 1516 1516 1516 1516 1516 1517 1518 1519 1520 1521 1522 1522 1522 1521 1519 1518 1518 1517 1517 1516 1517 1517 1516 1516 1516 1517 1516 1515 1514 1515 1515
1500 1501 1503 1504 1505 1507 1509 1510 1511 1512 1513 1513 1512 1512 1513 1514 1514 1515 1516 1516 1517 1518 1517 1516 1516 1516 1516 1515 1514 1515 1513 1512 1513 1512 1512 1512 1512 1512 1512 1511 1510 1509 1510
1497 1498 1500 1502 1502 1504 1506 1507 1508 1508 1510 1510 1510 1510 1510 1511 1511 1512 1513 1514 1514 1515 1514 1513 1513 1512 1512 1512 1510 1509 1509 1508 1507 1507 1507 1507 1507 1507 1506 1505 1504 1505 1505
1494 1496 1498 1499 1500 1502 1503 1504 1506 1505 1506 1506 1507 1507 1507 1507 1508 1509 1509 1511 1511 1512 1511 1510 1508 1507 1507 1507 1505 1505 1505 1504 1504 1503 1502 1501 1501 1501 1500 1499 1499 1500 1501
1491 1493 1496 1497 1497 1498 1500 1501 1502 1501 1502 1503 1503 1503 1503 1504 1504 1505 1505 1506 1507 1507 1507 1506 1504 1502 1502 1502 1502 1501 1500 1500 1500 1500 1499 1498 1496 1494 1493 1493 1494 1494 1494
1490 1491 1492 1493 1493 1495 1495 1496 1498 1497 1497 1499 1499 1499 1500 1500 1500 1501 1501 1501 1501 1503 1503 1501 1500 1499 1498 1497 1497 1496 1496 1496 1495 1496 1494 1493 1491 1490 1489 1488 1487 1488 1488
1486 1488 1488 1490 1490 1491 1492 1492 1493 1493 1493 1494 1493 1493 1495 1495 1495 1496 1495 1496 1497 1496 1496 1495 1495 1494 1493 1492 1492 1492 1491 1490 1489 1490 1489 1487 1487 1485 1484 1484 1483 1482 1481
1482 1483 1484 1486 1486 1487 1487 1489 1487 1488 1489 1489 1489 1489 1490 1490 1490 1490 1490 1491 1492 1492 1491 1489 1488 1488 1487 1487 1487 1486 1485 1484 1483 1483 1483 1480 1480 1477 1477 1476 1476 1475 1475
1478 1479 1480 1481 1481 1482 1483 1481 1481 1482 1482 1482 1482 1483 1483 1484 1485 1485 1485 1485 1485 1485 1484 1483 1482 1481 1481 1481 1481 1479 1478 1477 1475 1475 1476 1471 1472 1469 1469 1468 1469 1469 1467
1475 1476 1476 1476 1476 1476 1475 1475 1475 1475 1476 1476 1477 1478 1478 1479 1479 1481 1480 1479 1478 1478 1477 1477 1476 1475 1475 1475 1475 1474 1471 1470 1466 1467 1469 1467 1466 1463 1462 1460 1459 1458 1457
1469 1470 1469 1469 1468 1468 1469 1470 1470 1471 1471 1471 1472 1472 1473 1474 1474 1475 1475 1474 1472 1471 1471 1469 1469 1467 1467 1466 1467 1466 1465 1462 1460 1458 1461 1461 1458 1457 1451 1450 1449 1447 1448